Regional Weather Roundup
Issued by NWS

Home | Current Version | Previous Version | Text Only | Print | Product List | Glossary On
Versions: 1 2 3 4 5 6 7 8 9 10 11 12 13 14 15 16 17 18 19 20 21 22 23 24 25 26 27 28 29 30 31 32 33 34 35 36 37 38 39 40 41 42 43 44 45 46 47 48 49 50
000
ASUS44 KFWD 211203
RWRTX
NORTH TEXAS HOURLY WEATHER ROUNDUP
NATIONAL WEATHER SERVICE FORT WORTH TX
700 AM CDT MON MAY 21 2018

NOTE: "FAIR" INDICATES FEW OR NO CLOUDS BELOW 12,000 FEET WITH NO
SIGNIFICANT WEATHER AND/OR OBSTRUCTIONS TO VISIBILITY.

TXZ118-119-211300-
DALLAS/FORT WORTH METROPLEX

CITY           SKY/WX    TMP DP  RH WIND       PRES   REMARKS
DFW AIRPORT    FAIR      67  65  93 S5        30.01R
6HR MIN TEMP:  66; 6HR MAX TEMP:  71;

DALLAS LOVE    FAIR      70  65  84 CALM      30.02R
6HR MIN TEMP:  68; 6HR MAX TEMP:  73;

FTW MEACHAM    FAIR      68  66  93 CALM      30.02R
6HR MIN TEMP:  67; 6HR MAX TEMP:  72;

DAL-EXECUTIVE  FAIR      67  64  90 CALM      30.02R
6HR MIN TEMP:  65; 6HR MAX TEMP:  70;

FTW-ALLIANCE   FAIR      64  63  96 N7        30.03R
6HR MIN TEMP:  64; 6HR MAX TEMP:  69;

FTW-NAS-JRB    FAIR      69  64  84 CALM      30.03R
6HR MIN TEMP:  67; 6HR MAX TEMP:  72;

FTW-SPINKS     PTCLDY    63  63 100 CALM      30.05R FOG
ARLINGTON      FAIR      62  62 100 CALM      30.02S
6HR MIN TEMP:  61; 6HR MAX TEMP:  66;

GRAND PRAIRIE  CLEAR     66  66 100 CALM      30.04R
ADDISON        CLEAR     68  64  88 CALM      30.03R
MESQUITE       CLEAR     63  63 100 CALM      30.01F
LANCASTER      FAIR      64  63  96 CALM      30.03R
6HR MIN TEMP:  64; 6HR MAX TEMP:  67;

$$

TXZ091>094-102>105-117-120-121-131>134-211300-
NORTH CENTRAL TEXAS

CITY           SKY/WX    TMP DP  RH WIND       PRES   REMARKS
SHRMAN/DENISON FAIR      64  64  97 CALM      30.05R FOG
6HR MIN TEMP:  62; 6HR MAX TEMP:  67;

BOWIE          FAIR      63  62  97 CALM      30.05R FOG
6HR MIN TEMP:  63; 6HR MAX TEMP:  66;

BRIDGEPORT     FAIR      62  62 100 CALM      30.07R
6HR MIN TEMP:  61; 6HR MAX TEMP:  68;

DECATUR        FAIR      64  63  96 CALM      30.06R
6HR MIN TEMP:  64; 6HR MAX TEMP:  68;

DENTON         FAIR      64  63  96 N6        30.04R
6HR MIN TEMP:  64; 6HR MAX TEMP:  68;

MCKINNEY       FAIR      65  64  97 CALM      30.02R
6HR MIN TEMP:  64; 6HR MAX TEMP:  69;

BONHAM         MOCLDY    63  63 100 CALM      30.04R FOG
6HR MIN TEMP:  61; 6HR MAX TEMP:  67;

GREENVILLE     FAIR      64  64 100 CALM      30.03R
ROCKWALL       FAIR      65  65  99 CALM      30.02S
6HR MIN TEMP:  65; 6HR MAX TEMP:  69;

TERRELL        FAIR      64  61  90 CALM      30.03R
6HR MIN TEMP:  64; 6HR MAX TEMP:  70;

WAXAHACHIE     CLOUDY    63  63 100 CALM      30.03S
6HR MIN TEMP:  63; 6HR MAX TEMP:  66;

GRANBURY       FAIR      63  62  94 CALM      30.05R
6HR MIN TEMP:  63; 6HR MAX TEMP:  68;

$$

TXZ083>090-098>101-113>116-127>130-139>142-154-155-211300-
WESTERN NORTH TEXAS

CITY           SKY/WX    TMP DP  RH WIND       PRES   REMARKS
WICHITA FALLS  FAIR      62  60  93 NE6       30.05R
6HR MIN TEMP:  62; 6HR MAX TEMP:  66;

WF-KICKAPOO    FAIR      63  61  95 CALM      30.08R
6HR MIN TEMP:  62; 6HR MAX TEMP:  66;

VERNON         FAIR      62  61  97 NE5       30.08R
6HR MIN TEMP:  62; 6HR MAX TEMP:  71;

ABILENE        CLOUDY    64  63  96 E8        30.07R
6HR MIN TEMP:  62; 6HR MAX TEMP:  65;

ABILENE-DYESS  CLOUDY    65  60  84 CALM      30.07R
6HR MIN TEMP:  62; 6HR MAX TEMP:  65;

GRAHAM           N/A     61  50  67 CALM      30.04S
6HR MIN TEMP:  60; 6HR MAX TEMP:  66;

BRECKENRIDGE   FOG       64  64  99 CALM      30.05S VSB 1/2
6HR MIN TEMP:  63; 6HR MAX TEMP:  69;

CISCO          CLOUDY    64  64 100 E6        30.06R
EASTLAND       CLOUDY    63  63  98 CALM      30.06R FOG
6HR MIN TEMP:  57; 6HR MAX TEMP:  64;

RANGER         FOG       59  59 100 CALM      30.06R VSB 1/4
6HR MIN TEMP:  58; 6HR MAX TEMP:  63;

MINERAL WELLS  FAIR      62  61  96 CALM      30.03R FOG
6HR MIN TEMP:  62; 6HR MAX TEMP:  70;

STEPHENVILLE   CLOUDY    65  64  94 CALM      30.08R VSB 1/4
6HR MIN TEMP:  64; 6HR MAX TEMP:  66;

COMANCHE       CLOUDY    66  66 100 E6        30.06R FOG
6HR MIN TEMP:  66; 6HR MAX TEMP:  67;

COLEMAN        CLOUDY    65  64  94 E5        30.07R
6HR MIN TEMP:  64; 6HR MAX TEMP:  66;

BRADY          CLOUDY    64  64 100 E6        30.05S FOG
$$

TXZ143>147-156>162-174-175-211300-
CENTRAL TEXAS

CITY           SKY/WX    TMP DP  RH WIND       PRES   REMARKS
WACO           MOCLDY    65  64  97 CALM      30.03R
6HR MIN TEMP:  65; 6HR MAX TEMP:  68;

WACO-TSTC      MOCLDY    64  64 100 CALM      30.04  FOG
WACO-MCGREGOR  MOCLDY    65  65 100 CALM      30.04R
6HR MIN TEMP:  64; 6HR MAX TEMP:  67;

HILLSBORO      CLOUDY    67  67 100 E5        30.03R
6HR MIN TEMP:  66; 6HR MAX TEMP:  67;

CORSICANA      FAIR      67  66  97 CALM      30.03R
6HR MIN TEMP:  66; 6HR MAX TEMP:  69;

MEXIA          FAIR      64  63  97 CALM      30.03R
6HR MIN TEMP:  64; 6HR MAX TEMP:  66;

HEARNE         MOCLDY    66  66 100 CALM      30.02S
6HR MIN TEMP:  64; 6HR MAX TEMP:  66;

CAMERON        CLOUDY    67  66  96 CALM      30.01F
6HR MIN TEMP:  65; 6HR MAX TEMP:  67;

TEMPLE         CLOUDY    66  66 100 NE5       30.03R
6HR MIN TEMP:  65; 6HR MAX TEMP:  66;

KILLEEN        CLOUDY    67  65  95 NE6       30.02R
6HR MIN TEMP:  65; 6HR MAX TEMP:  67;

KILLEEN-SKYLRK CLOUDY    67  67 100 N6        30.03S
6HR MIN TEMP:  65; 6HR MAX TEMP:  67;

FORT HOOD      CLOUDY    67  66  95 NE6       29.99S
6HR MIN TEMP:  66; 6HR MAX TEMP:  68;

GATESVILLE     CLOUDY    66  66 100 CALM      30.06R FOG
HAMILTON       FOG       66  66 100 CALM      30.07R VSB<1/4
6HR MIN TEMP:  64; 6HR MAX TEMP:  67; 6HR PCP:  0.01;

$$

TXZ095>097-106>112-122>126-135>138-148>153-164>167-211300-
EAST TEXAS

CITY           SKY/WX    TMP DP  RH WIND       PRES   REMARKS
PARIS          FAIR      67  66  97 CALM      30.03R
6HR MIN TEMP:  67; 6HR MAX TEMP:  70;

SULPHUR SPRNGS MOCLDY    67  65  95 CALM      30.05R
6HR MIN TEMP:  66; 6HR MAX TEMP:  72;

MOUNT PLEASANT FAIR      64  64 100 CALM      30.04R
6HR MIN TEMP:  64; 6HR MAX TEMP:  68;

MINEOLA        CLOUDY    64  63  94 CALM      30.03R
TYLER          FAIR      68  67  96 CALM      30.02R
6HR MIN TEMP:  67; 6HR MAX TEMP:  70;

LONGVIEW       FAIR      68  68 100 CALM      30.01R
6HR MIN TEMP:  68; 6HR MAX TEMP:  70;

MARSHALL       FAIR      67  65  94 CALM      30.04R
6HR MIN TEMP:  65; 6HR MAX TEMP:  67; 6HR PCP:  0.01;

ATHENS         MOCLDY    64  64 100 CALM      30.01S FOG
PALESTINE      CLOUDY    67  67 100 CALM      30.03R
CENTER         FAIR      67  66  96 CALM      30.03R
6HR MIN TEMP:  67; 6HR MAX TEMP:  68;

NACOGDOCHES    FOG       67  66  97 CALM      30.03R VSB 1
6HR MIN TEMP:  67; 6HR MAX TEMP:  69;

LUFKIN         FAIR      69  68  96 CALM      30.02R
6HR MIN TEMP:  68; 6HR MAX TEMP:  70;

$$

SUPPLEMENTAL OBSERVATIONS (NWS FORT WORTH AREA)

CITY           SKY/WX    TMP DP  RH WIND       PRES   REMARKS
$$

SUPPLEMENTAL OBSERVATIONS (NWS NORMAN AREA)

CITY           SKY/WX    TMP DP  RH WIND       PRES   REMARKS
GOODLETT         N/A     60  57  89 N5        30.09R
ODELL            N/A     58  58 100 N5        30.09R
CROWELL          N/A     61  60  95 NW3       30.10R
KNOX CITY        N/A     63  60  92 NE3       30.10R
SEYMOUR          N/A     61  60  96 NE2       30.08R
$$

SUPPLEMENTAL OBSERVATIONS (NWS SAN ANGELO AREA)

CITY           SKY/WX    TMP DP  RH WIND       PRES   REMARKS
WEINERT          N/A     64  62  91 E3



USA.gov is the U.S. government's official web portal to all federal, state and local government web resources and services.